Location: Montichiari
(45.4167°N, 10.3833°E)
Time: 05:28:37
(UTC+00:00)

Daily predictions for brighter satellites

Satellite Brightness Start Highest point End
(mag) Time Altitude Azimuth Time Altitude Azimuth Time Altitude Azimuth
SL-14 R/B 3.6 00:05:41 50° ESE 00:05:57 52° E 00:09:43 10° NNE
Cosmos 1697 Rocket 3.3 00:01:52 10° NW 00:07:04 38° WSW 00:07:55 36° SW
Cosmos 332 Rocket 3.7 00:03:11 10° NNW 00:07:59 71° WSW 00:08:54 56° SSW
Cosmos 2151 3.3 00:07:36 48° WSW 00:08:09 51° WNW 00:12:18 10° N
Cosmos 1805 Rocket 3.5 00:07:49 62° SSW 00:08:33 86° W 00:13:02 10° N
BREEZE-M DEB (TANK) 4.2 00:10:23 17° ESE 00:10:23 17° ESE 00:12:50 10° E
Meteor 1-11 4.3 00:08:07 41° S 00:10:10 74° E 00:16:00 10° NNE
Cosmos 1271 Rocket 4.2 00:08:39 10° N 00:12:02 30° ENE 00:13:21 24° ESE
Cosmos 1633 Rocket 3.2 00:13:12 52° SSE 00:14:05 67° E 00:18:30 10° NNE
Cosmos 2082 Rocket 3.3 00:11:11 21° WSW 00:14:19 36° NW 00:19:34 10° NNE
ERS-2 4.2 00:11:45 10° NE 00:14:25 19° E 00:15:11 18° ESE
Cosmos 1328 4.1 00:14:07 50° W 00:14:27 52° WNW 00:18:22 10° N
PSLV R/B 4.5 00:10:14 10° NNE 00:14:33 40° E 00:15:42 34° SE
Cosmos 1833 Rocket 3.5 00:12:25 26° WSW 00:15:08 44° WNW 00:20:32 10° NNE
ATLAS 5 CENTAUR R/B 3.4 00:14:19 21° SE 00:15:16 22° ESE 00:19:11 10° ENE
Cosmos 1151 Rocket 4.4 00:13:06 10° NNW 00:16:37 25° W 00:16:46 25° W
Cosmos 1703 4.1 00:16:21 37° ESE 00:17:03 41° E 00:20:47 10° NNE
Cosmos 1707 Rocket 3.6 00:16:50 10° NNW 00:21:07 58° W 00:21:39 53° SW
Cosmos 2344 4.2 00:15:57 17° WSW 00:22:12 57° NW 00:31:26 10° NE
Cosmos 1666 Rocket 3.5 00:25:27 57° SSW 00:26:14 75° W 00:30:35 10° N
Cosmos 2242 Rocket 3.4 00:21:54 10° N 00:26:20 87° W 00:27:20 54° S
Cosmos 1300 2.9 00:23:08 10° NNW 00:26:53 52° W 00:26:57 52° W
deb Kosmos-1763 4.3 00:29:25 56° SE 00:29:49 61° ESE 00:33:40 10° NNE
Cosmos 1437 3.3 00:33:04 48° WNW 00:33:04 48° WNW 00:36:14 10° N
Cosmos 1726 2.3 00:32:03 10° NNW 00:35:41 54° W 00:35:45 54° W
CZ-2C R/B 3.6 00:31:03 10° N 00:36:07 38° WNW 00:38:28 25° WSW
SL-08 R/B 4.3 00:33:04 17° SE 00:36:33 45° ENE 00:41:14 10° N
ASTEX 1 3.7 00:31:42 10° N 00:36:34 55° W 00:38:03 39° SW
Cosmos 1470 Rocket 3.9 00:35:48 39° SSE 00:37:12 58° E 00:41:32 10° NNE
ISS -1.2 00:34:55 10° WNW 00:35:57 19° WNW 00:35:57 19° WNW
Cosmos 1933 Rocket 3.8 00:39:58 40° SSE 00:41:22 62° E 00:45:45 10° NNE
Cosmos 968 Rocket 3.4 00:39:54 41° SSW 00:41:42 80° WNW 00:46:54 10° NNE
Sich 1 3.5 00:48:16 39° WSW 00:49:24 49° WNW 00:53:44 10° N
Cosmos 1745 Rocket 4.2 00:46:50 33° SSW 00:49:46 64° W 00:56:05 10° N
Lacrosse 5 rocket 2.0 00:47:20 10° WNW 00:51:05 39° WSW 00:51:05 39° WSW
Nadezhda 1 Rocket 4.0 00:46:05 10° NNW 00:52:09 62° W 00:54:57 32° SSW
Cosmos 1455 2.3 00:49:56 10° N 00:53:43 72° E 00:54:56 40° SSE
SL-16 R/B 2.2 00:49:54 10° NNW 00:55:32 65° WSW 00:58:29 28° S
Cosmos 371 Rocket 3.9 00:53:01 10° NW 00:57:28 37° WSW 00:58:20 34° SW
Cosmos 1626 2.3 00:59:27 41° SSE 01:00:33 65° E 01:04:17 10° NNE
Cosmos 1709 Rocket 4.1 00:57:16 26° S 01:01:00 74° E 01:07:14 10° NNE
Cosmos 304 Rocket 3.9 00:57:58 10° NNW 01:02:49 74° ENE 01:06:34 17° SSE
Landsat 4 4.1 01:04:32 41° WSW 01:04:56 43° W 01:08:32 10° NNW
Cosmos 2322 Rocket 2.4 00:59:34 10° NW 01:05:01 51° WSW 01:07:29 30° SSW
Lacrosse 5 4.1 01:05:22 10° W 01:05:27 10° W 01:05:27 10° W
SL-16 R/B 4.0 01:02:16 10° SE 01:07:54 37° ENE 01:13:33 10° N
Abrixas 3.5 01:06:54 11° WNW 01:09:48 47° N 01:12:49 10° E
CZ-2D R/B 4.2 01:06:46 10° NE 01:10:34 20° E 01:14:23 10° SE
ATLAS CENTAUR R/B 2.6 01:09:35 10° NNW 01:14:14 48° NE 01:18:30 10° ESE
Meteor 2-10 4.3 01:09:26 10° NNW 01:14:34 52° W 01:17:06 29° SSW
Cosmos 1862 Rocket 3.7 01:10:31 10° NNW 01:14:56 59° W 01:16:41 34° SSW
USA 215 3.7 01:10:05 10° ENE 01:16:25 49° SE 01:20:13 24° SSW
GENESIS II 4.2 01:12:20 10° NW 01:16:29 76° SW 01:19:31 17° SSE
Cosmos 923 Rocket 4.2 01:17:39 10° NNW 01:22:45 51° WSW 01:25:31 25° S
Cosmos 2292 Rocket 3.0 01:23:23 36° S 01:24:40 82° E 01:28:46 10° N
NPP 3.6 01:21:53 10° NNE 01:27:18 79° WNW 01:30:33 25° SSW
Cosmos 1346 3.1 01:28:17 40° S 01:29:14 75° E 01:32:19 10° NNE
Okean O Rocket 4.4 01:28:09 10° ENE 01:29:27 11° E 01:30:44 10° ESE
Cosmos 1680 Rocket 3.6 01:25:21 10° NNW 01:30:28 57° WSW 01:33:58 20° S
Cosmos 1777 Rocket 4.5 01:28:06 24° SW 01:31:01 50° WNW 01:36:11 10° NNE
Cosmos 1980 Rocket 4.1 01:29:22 10° WNW 01:31:35 12° W 01:32:04 12° WSW
Cosmos 2360 Rocket 2.1 01:27:37 10° NNW 01:33:16 81° WSW 01:38:54 10° SSE
AQUA 3.8 01:29:10 10° N 01:33:57 79° WNW 01:36:46 25° SSW
Meteor 1-4 Rocket 3.9 01:32:47 10° NW 01:35:58 25° W 01:36:39 24° WSW
USA 161 1.0 01:38:24 42° SSE 01:39:02 76° ENE 01:41:26 10° N
Cosmos 1869 Rocket 3.7 01:39:51 19° S 01:42:56 73° E 01:47:24 10° NNE
CBERS-1 4.1 01:38:11 10° N 01:43:17 68° WNW 01:46:39 21° SSW
IRS-1C 4.1 01:41:32 10° NNE 01:46:54 78° WNW 01:50:44 19° SSW
Cosmos 1271 Rocket 4.3 01:45:12 10° NW 01:47:54 19° W 01:48:33 18° WSW
ERS-2 3.2 01:44:58 10° N 01:48:20 33° WNW 01:50:02 22° WSW
USA 129 4.2 01:48:17 10° E 01:48:59 12° ENE 01:49:43 10° NE
CENTAUR R/B 4.2 01:43:47 10° W 01:49:24 30° NNW 01:55:38 10° NNE
ARIANE 5 R/B 2.9 01:44:33 10° NNE 01:49:35 58° E 01:54:06 12° S
Cosmos 2221 Rocket 3.6 01:45:47 10° NNW 01:50:17 66° W 01:53:48 16° S
Resurs 1-4 Rocket 3.0 01:45:49 10° NNE 01:50:56 44° E 01:56:00 10° S
Cosmos 1869 4.4 01:48:13 10° NNW 01:51:39 28° W 01:53:09 22° SW
Cosmos 2322 3.9 01:52:09 10° NW 01:57:43 54° WSW 02:03:16 10° S
Cosmos 2219 3.4 01:53:34 16° SSW 01:58:09 69° ESE 02:03:54 10° NNE
IRS-1D 3.9 01:53:58 10° NNE 01:59:18 65° ESE 02:04:24 11° S
ATLAS 5 CENTAUR R/B 2.3 01:55:51 18° WSW 01:59:27 59° NW 02:04:46 10° NNE
Cosmos 1898 Rocket 3.7 01:56:43 15° S 02:00:57 71° ESE 02:06:08 10° NNE
Cosmos 1937 Rocket 4.1 01:58:15 11° S 02:03:07 54° ESE 02:08:17 10° NNE
Cosmos 1703 Rocket 4.2 02:06:34 10° NNW 02:10:35 37° W 02:13:39 16° SSW
Meteor 1-26 Rocket 4.2 02:06:16 10° NNW 02:11:47 69° W 02:17:15 10° S
EO 1 Del DPAF 3.3 02:08:04 10° S 02:11:57 65° WSW 02:15:51 10° NNW
Cosmos 1733 Rocket 4.3 02:08:17 10° SSE 02:12:21 40° E 02:16:29 10° NNE
Nadezhda 3 Rocket 4.4 02:06:18 10° N 02:12:26 65° E 02:18:31 10° SSE
ADEOS 4.0 02:12:49 10° N 02:17:51 48° WNW 02:22:11 13° SW
Cosmos 2154 Rocket 4.4 02:14:39 10° S 02:20:56 68° E 02:27:15 10° NNE
Cosmos 2333 Rocket 3.3 02:15:42 10° NNW 02:21:16 50° ENE 02:26:49 10° SE
SL-23 DEB 3.4 02:19:13 10° WNW 02:22:21 69° SSW 02:26:26 10° SE
Okean 1-7 3.4 02:18:32 10° NNW 02:22:44 45° W 02:26:52 10° SSW
USA 229 DEB 3.8 02:18:36 13° SW 02:24:52 88° NW 02:31:55 10° NE
USA 229 3.8 02:18:42 13° SW 02:24:58 89° NW 02:32:02 10° NE
Cosmos 2150 Rocket 4.2 02:22:11 13° SSW 02:26:58 69° WNW 02:32:23 10° NNE
Cosmos 2074 Rocket 4.3 02:22:54 11° SSW 02:28:43 55° WNW 02:34:52 10° N
COSMOS 2428 2.8 02:26:19 10° NNW 02:31:53 57° WSW 02:37:24 10° S
Cosmos 2184 Rocket 4.4 02:31:55 10° SSW 02:38:03 49° WNW 02:44:11 10° N
Cosmos 1782 3.4 02:36:13 10° N 02:40:13 60° E 02:44:09 10° SSE
Cosmos 2237 Rocket 2.8 02:36:24 10° NNW 02:42:04 63° ENE 02:47:42 10° SE
Cosmos 389 Rocket 2.8 02:40:34 10° NNW 02:44:10 51° W 02:47:44 10° S
Sich 1 Rocket 4.3 02:40:40 10° S 02:44:57 55° E 02:49:16 10° NNE
Abrixas 2.5 02:42:57 10° WNW 02:46:01 64° SSW 02:49:04 10° ESE
ASTRO F (AKARI) 4.2 02:43:30 10° S 02:46:41 65° WSW 02:49:50 10° NNW
MOZ.5/SAFIR/RUBIN 5/SL-8 4.4 02:43:12 10° SSE 02:47:50 63° ENE 02:52:32 10° N
MOS 1-B 4.4 02:42:21 10° N 02:48:07 69° WNW 02:53:52 10° SSW
Coronas F rocket 2.5 02:47:10 10° S 02:49:48 43° E 02:52:27 10° NNE
CZ-2D R/B 2.3 02:45:52 10° N 02:51:02 59° WNW 02:56:14 10° SSW
SL-16 R/B 3.0 02:45:32 10° SSW 02:51:26 42° W 02:57:22 10° NNW
ATLAS CENTAUR R/B 2.7 02:49:21 10° WNW 02:53:01 23° WSW 02:56:27 10° SSW
Cosmos 2219 Rocket 2.2 02:47:42 10° NNW 02:53:18 76° WSW 02:58:52 10° SSE
Cosmos 1674 Rocket 3.5 02:48:59 10° NNW 02:53:20 78° W 02:57:39 10° S
Cosmos 1825 4.5 02:50:16 10° SE 02:53:25 25° E 02:56:33 10° NE
CZ-4B R/B 4.0 02:50:56 10° NNE 02:54:55 48° E 02:59:05 10° S
CZ-2C R/B 3.7 02:50:55 10° S 02:55:25 69° WSW 03:00:03 10° NNW
Cosmos 1892 2.8 02:52:10 10° SSW 02:56:00 65° W 02:59:52 10° N
USA 215 3.7 02:53:06 10° NE 02:59:32 61° NNW 03:05:56 10° WSW
Meteor 2-10 Rocket 3.6 02:56:01 10° NNW 03:01:01 60° W 03:06:08 10° S
Cosmos 990 Rocket 4.1 02:55:57 10° SSW 03:01:05 70° WNW 03:06:15 10° NNE
